Regional Weather Roundup
Issued by NWS Mobile, AL

Home | Current Version | Previous Version | Text Only | Print | Product List | Glossary On
Versions: 1 2 3 4 5 6 7 8 9 10 11 12 13 14 15 16 17 18 19 20 21 22 23 24 25 26 27
000
ASUS44 KMOB 310510
RWRMOB
REGIONAL WEATHER ROUNDUP
NATIONAL WEATHER SERVICE MOBILE AL
1200 AM CDT FRI OCT 31 2014

NOTE: "FAIR" INDICATES FEW OR NO CLOUDS BELOW 12,000 FEET WITH NO
      SIGNIFICANT WEATHER AND/OR OBSTRUCTIONS TO VISIBILITY.

  * THESE STATIONS ARE PART OF THE UNIVERSITY OF SOUTH ALABAMA
    MESONET AND ARE NOT UNDER NWS OR FAA QUALITY CONTROL.

ALZ061>064-310600-
COASTAL ALABAMA

CITY           SKY/WX    TMP DP  RH WIND       PRES   REMARKS
MOBILE REG APT CLEAR     47  43  86 NW5       30.04S
BROOKLEY FIELD CLEAR     53  43  68 NW7       30.05R
USA CAMPUS*      N/A     48  43  81 CALM      30.05S
DOG RIVER*     NOT AVBL


CITY           SKY/WX    TMP DP  RH WIND       PRES   REMARKS
MOUNT VERNON*  NOT AVBL
SARALAND*      NOT AVBL
BAY MINETTE*   NOT AVBL
LOXLEY*          N/A     46  45  93 CALM      30.03F
ROBERTSDALE*     N/A     48  45  87 CALM      30.02F
FAIRHOPE*        N/A     50  45  81 N3        30.02F
ELBERTA*         N/A     46  46 100 CALM      30.01F
FOLEY*           N/A     54  41  62 CALM      29.98F
GRAND BAY*       N/A     45  45 100 CALM      30.02S
DAUPHIN ISLND* NOT AVBL
BON SCOUR NWR* NOT AVBL
GULF SHORES    CLEAR     47  46  95 CALM      30.02F

$$

ALZ051>060-310600-
INTERIOR SOUTHWEST AND SOUTH CENTRAL ALABAMA

CITY           SKY/WX    TMP DP  RH WIND       PRES   REMARKS
GREENVILLE     CLEAR     46  40  79 N5        30.01F
EVERGREEN      CLEAR     47  43  86 NW3       30.02S
CASTLEBERRY*   NOT AVBL
ATMORE*          N/A     45  41  87 CALM      30.03F
DIXIE*           N/A     50  43  76 CALM      29.99F
ANDALUSIA/OPP  CLEAR     50  43  77 CALM      30.00F
ANDALUSIA*       N/A     52  43  71 NW3       30.00F
FLORALA APT    CLEAR     53  42  66 NW3       30.02S
FLORALA*         N/A     54  41  62 CALM      29.98F

$$

FLZ001>006-310600-
WESTERN FLORIDA PANHANDLE

CITY           SKY/WX    TMP DP  RH WIND       PRES   REMARKS
PENSACOLA      CLEAR     53  43  68 N6        30.01S
NAS PENSACOLA  CLEAR     50  45  83 NW6       30.01S
MILTON         CLEAR     51  41  68 N5        30.01F
WHTNG S FIELD  CLEAR     50  41  71 N7        30.01S


CITY           SKY/WX    TMP DP  RH WIND       PRES   REMARKS
WALNUT HILL*   NOT AVBL
JAY*             N/A     52  39  62 NW5       30.03S
DUKE FIELD     CLEAR     48  44  88 CALM      30.00F
CRESTVIEW      CLEAR     53  43  68 N5        30.01F
VALPARAISO     CLEAR     53  42  66 N5        30.00S
DESTIN         CLEAR     61  45  55 N9        30.00S

$$

MSZ076-079-310600-
INTERIOR SOUTHEAST MISSISSIPPI

CITY           SKY/WX    TMP DP  RH WIND       PRES   REMARKS
LEAKESVILLE*     N/A     46  41  81 CALM      30.05S
AGRICOLA*      NOT AVBL

$$

MARINE OBSERVATIONS

STATION/POSITION TIME  TEMP    WIND        PRES    WAVE
                       AIR SEA DIR/SP/G            HT/PER
                 (UTC) (F)     (DEG/KT/KT) (MB)    (FT/S)
PASCAGOULA       0500   59     340/  5/  6 1016.7S
PETIT BOIS ISLND 0500   67      10/ 12/ 13 1017.0S
GRAND BAY        0400   58     340/  4     1018.0S
KATRINA CUT      0400   67      10/ 10     1017.3S
CEDAR POINT      0400   60     350/  6     1017.3R
E DAUPHIN ISLAND 0357   67     350/  9/ 11 1017.0R
MIDDLE BAY LIGHT 0400   66      10/ 12       N/A
USCG MOBILE BAY  0500   57 75  330/  3/  5 1015.7S
STATE DOCKS      0500   56 74              1016.7R
MEAHER PARK      0400   58      10/  2     1017.3S
WEEKS BAY        0400   50                   N/A
12 S ORANGE BCH  0500   68 76  360/ 14/ 16 1015.9F   2/ 3
PENSACOLA BAY    0500   60 75  350/  4/  6 1016.5S
64 S DAUPHIN ISL 0420   70 78  360/ 14/ 16 1016.8F   3/ 6
67 S FORT MORGAN 0400   70                 1015.9F

$$

SELECTED LOCATIONS ACROSS THE REGION

CITY           SKY/WX    TMP DP  RH WIND       PRES   REMARKS
NEW ORLEANS    CLEAR     56  49  77 W6        30.05S
GULFPORT       CLEAR     51  45  79 CALM      30.03F
PASCAGOULA AP  CLEAR     43  42  97 CALM      30.04S
PASCAGOULA*      N/A     50  48  93 CALM      30.03F
HATTIESBURG    CLEAR     47  43  86 CALM      30.06S
LAUREL         CLEAR     46  41  81 CALM      30.06R
MERIDIAN       CLEAR     44  41  89 CALM      30.05S
JACKSON        MOCLDY    49  45  86 CALM      30.06S
MONTGOMERY     CLEAR     48  40  73 CALM      30.02S
TROY           CLEAR     44  41  89 CALM      30.01S
KINSTON*       NOT AVBL
GENEVA*          N/A     52  43  71 CALM      30.02S
ASHFORD*         N/A     52  43  71 NW3       30.00F
DOTHAN         CLEAR     49  41  74 N6        30.02S
PANAMA CITY    CLEAR     49  44  83 NW5       29.98S

$$




USA.gov is the U.S. government's official web portal to all federal, state and local government web resources and services.